Starlink 3612

operational
NORAD ID: 51770 Int'l Des: 2022-017 Owner: SPXS Country: US Constellation: starlink
LEOCIRCULAR

Starlink 3612について

説明を読み込み中...

リアルタイム位置

3D地球を読み込み中...

次回通過

高度履歴

Altitude vs Time

uPlot chart will show altitude changes over time

軌道要素

1 51770U 22017C 25350.28716012 -.00000247 00000-0 25545-5 0 9994
2 51770 53.2194 353.5293 0001642 87.6870 272.4310 15.08843718210024
Epoch: Dec 16, 2025 • Age: 27 hours

現在のステータス

高度 545.2 km
速度 7.60 km/s
衛星直下点 53.24°N, 157.32°W
打ち上げ日 Feb 25, 2022
運用期間 3.8 years
タイプ internet

技術仕様

分類 Payload
質量 297.00 kg
乾燥質量 275.00 kg
総質量 297.00 kg
長さ 0.20 m
直径 2.80 m
スパン 9.00 m
形状 Box + pan
製造者 SPXS
バスタイプ Starlink
フェーズステータス In Orbit
所有者/国 SPXS/US

大規模コンステレーション

Loading constellations...